Regional Weather Roundup
Issued by NWS

Home | Current Version | Previous Version | Graphics & Text | Print | Product List | Glossary On
Versions: 1 2 3 4 5 6 7 8 9 10 11 12 13 14 15 16 17 18 19 20 21 22 23 24 25 26 27 28 29 30 31 32 33 34 35 36 37 38 39 40 41 42 43 44 45 46 47 48 49 50
000
ASUS45 KBOI 291610
RWRID
WEATHER ROUNDUP FOR IDAHO
NATIONAL WEATHER SERVICE BOISE ID
1000 AM MDT TUE JUL 29 2014

NOTE: "FAIR" INDICATES FEW OR NO CLOUDS BELOW 12000 FEET
WITH NO SIGNIFICANT WEATHER AND/OR OBSTRUCTIONS TO VISIBILITY

IDZ012-014-291700-
SOUTHWEST IDAHO


CITY           SKY/WX    TMP DP  RH WIND       PRES   REMARKS
BOISE          PTSUNNY   83  50  31 NE5       30.12S
CALDWELL       NOT AVBL
MOUNTAIN HOME  SUNNY     80  56  43 E8        30.13F
$$

IDZ016-017-291700-
SOUTHCENTRAL IDAHO


CITY           SKY/WX    TMP DP  RH WIND       PRES   REMARKS
BURLEY         PTSUNNY   73  58  59 E7        30.18S
JEROME         PTSUNNY   76  56  49 E5        30.19S
TWIN FALLS     MOSUNNY   80  54  40 NE7       30.19S
$$

IDZ019>023-291700-
SOUTHEAST IDAHO


CITY           SKY/WX    TMP DP  RH WIND       PRES   REMARKS
IDAHO FALLS    CLOUDY    67  56  67 CALM      30.25R
POCATELLO      LGT RAIN  66  64  93 CALM      30.24R
REXBURG        CLOUDY    66  53  63 NE6       30.25S
$$

IDZ006-010-011-018-031-032-291700-
CENTRAL IDAHO MOUNTAINS


CITY           SKY/WX    TMP DP  RH WIND       PRES   REMARKS
MCCALL         MOSUNNY   68  52  56 NW3       30.26S
HAILEY         MOSUNNY   70  46  43 NW9       30.29S
STANLEY          N/A     62  47  57 CALM      30.39F
SALMON         SUNNY     68  48  49 CALM      30.21F
CHALLIS        SUNNY     70  48  45 VRB5      30.28F
$$

IDZ002-004-006-007-026-291700-
NORTHERN IDAHO


CITY           SKY/WX    TMP DP  RH WIND       PRES   REMARKS
LEWISTON       SUNNY     80  51  36 NE3       30.06F
LOWELL           N/A     69  55  60 CALM      30.12F
COEUR D`ALENE  SUNNY     75  54  46 E13       30.11S
MULLAN PASS    SUNNY     74  44  34 VRB3      30.35S
$$


USA.gov is the U.S. government's official web portal to all federal, state and local government web resources and services.